Flag for Canada Weather past 2 weeks in Sarnia, Ontario, Canada

Now
19 °F

Clear.


Feels Like: 10 °F
Forecast: 18 / 39 °F
Wind: 7 mph from Southwest

Location: Sarnia Airport

Current Time: Mar 29, 2015 at 1:29:15 AM

Latest Report: Mar 29, 2015 at 1:00 AM


Visibility: 9 mi

Pressure: 30.32 "Hg

Humidity: 86%

Dew point: 16 °F

Location of SarniaLocation

Historic Weather in Sarnia — Graph

°F

Sarnia temperature yesterday

Maximum temperature yesterday: 27 °F (at 4:00 PM)
Minimum temperature yesterday: 14 °F (at 6:00 AM)
Average temperature yesterday: 21 °F

Past Weeks' High & Low Weather Summary

 TemperatureHumidityPressure
High57 °F (Mar 16, 2:00 PM)100% (Mar 14, 1:00 AM)30.40 "Hg (Mar 14, 1:00 AM)
Low14 °F (Mar 28, 6:00 AM)34% (Mar 20, 1:00 PM)29.72 "Hg (Mar 16, 11:00 PM)
Average32 °F72%30.12 "Hg
* Reported Midnight between Mar 13 and Mar 14 — Midnight between Mar 28 and Mar 29, Sarnia, Weather by CustomWeather, © 2015

Note: Actual official high and low records may vary slightly from our data, if they occured in-between our weather recording intervals... More about our weather records

Advertising

Sarnia weather history for previous 24 hours

 ConditionsComfort  
Time TempWeatherWind HumidityBarometerVisibility
12:00 AM
Sun, Mar 29
19 °FClear.6 mph86%30.33 "Hg9 mi
11:00 PM
Sat, Mar 28
19 °FClear.7 mph86%30.33 "Hg9 mi
10:00 PM21 °FClear.3 mph80%30.31 "Hg9 mi
9:00 PM23 °FClear.3 mph68%30.31 "Hg9 mi
8:00 PM23 °FSunny.3 mph74%30.32 "Hg9 mi
7:00 PM25 °FSunny.7 mph69%30.31 "Hg9 mi
6:00 PM27 °FSunny.10 mph64%30.29 "Hg9 mi
5:00 PM27 °FSunny.9 mph59%30.29 "Hg9 mi
4:00 PM27 °FSunny.12 mph64%30.30 "Hg9 mi
3:00 PM25 °FSunny.13 mph63%30.31 "Hg9 mi
2:00 PM23 °FSunny.10 mph68%30.31 "Hg9 mi
1:00 PM23 °FSunny.10 mph63%30.32 "Hg9 mi
12:00 PM21 °FSunny.12 mph58%30.33 "Hg9 mi
11:00 AM19 °FSunny.10 mph58%30.32 "Hg9 mi
10:00 AM19 °FSunny.13 mph53%30.31 "Hg9 mi
9:00 AM18 °FSunny.13 mph58%30.29 "Hg9 mi
8:00 AM16 °FClear.12 mph57%30.26 "Hg9 mi
7:00 AM14 °FClear.12 mph67%30.23 "Hg9 mi
6:00 AM14 °FClear.10 mph67%30.20 "Hg9 mi
5:00 AM16 °FOvercast.15 mph62%30.18 "Hg9 mi
4:00 AM19 °FOvercast.13 mph63%30.17 "Hg9 mi
3:00 AM19 °FOvercast.15 mph63%30.16 "Hg9 mi
2:00 AM19 °FOvercast.16 mph58%30.16 "Hg9 mi
1:00 AM18 °FPassing clouds.10 mph62%30.17 "Hg9 mi
Weather by CustomWeather, © 2015

See weather overviewHow to use our weather pages